Gijón Campus
latitud = 43° 31' 23''N | Longitud = 005° 37' 16''W | altura s/n = 26m
fecha-hora | temperatura | viento dirección-velocidad-rachas | humedad | presión

  • 11-04-2019 21:00:00 | 12.30°C | Norte-4.00 km/h - 10.00 km/h | 77.00% | 1015.30 hPa
  • 11-04-2019 20:00:00 | 13.10°C | Noroeste-4.00 km/h - 13.00 km/h | 75.00% | 1015.20 hPa
  • 11-04-2019 19:00:00 | 13.10°C | Noroeste-7.00 km/h - 15.00 km/h | 73.00% | 1015.30 hPa
  • 11-04-2019 18:00:00 | 13.70°C | Noroeste-8.00 km/h - 34.00 km/h | 71.00% | 1015.20 hPa
  • 11-04-2019 17:00:00 | 14.60°C | Noroeste-9.00 km/h - 19.00 km/h | 70.00% | 1015.30 hPa
  • 11-04-2019 16:00:00 | 13.40°C | Noroeste-15.00 km/h - 22.00 km/h | 72.00% | 1015.50 hPa
  • 11-04-2019 15:00:00 | 13.30°C | Oeste-16.00 km/h - 0.00 km/h | 72.00% | 1015.70 hPa
  • 11-04-2019 14:00:00 | 14.50°C | Oeste-13.00 km/h - 23.00 km/h | 75.00% | 1015.70 hPa
  • 11-04-2019 13:00:00 | 13.00°C | Oeste-17.00 km/h - 24.00 km/h | 76.00% | 1015.80 hPa
  • 11-04-2019 12:00:00 | 13.00°C | Oeste-9.00 km/h - 21.00 km/h | 76.00% | 1015.50 hPa
  • 11-04-2019 11:00:00 | 11.50°C | Oeste-10.00 km/h - 15.00 km/h | 78.00% | 1015.20 hPa
  • 11-04-2019 10:00:00 | 9.10°C | Sur-13.00 km/h - 19.00 km/h | 81.00% | 1014.90 hPa
  • 11-04-2019 09:00:00 | 7.90°C | Sur-15.00 km/h - 20.00 km/h | 84.00% | 1014.60 hPa
  • 11-04-2019 08:00:00 | 7.60°C | Sur-14.00 km/h - 20.00 km/h | 84.00% | 1014.50 hPa
  • 11-04-2019 07:00:00 | 7.90°C | Sur-13.00 km/h - 19.00 km/h | 84.00% | 1014.10 hPa
  • 11-04-2019 06:00:00 | 8.70°C | Sur-13.00 km/h - 17.00 km/h | 83.00% | 1014.30 hPa
  • 11-04-2019 05:00:00 | 9.20°C | Sur-12.00 km/h - 0.00 km/h | 83.00% | 1014.30 hPa
  • 11-04-2019 04:00:00 | 9.00°C | Sur-13.00 km/h - 18.00 km/h | 84.00% | 1014.10 hPa
  • 11-04-2019 03:00:00 | 9.30°C | Sur-12.00 km/h - 16.00 km/h | 84.00% | 1014.20 hPa
  • 11-04-2019 02:00:00 | 9.60°C | Sur-11.00 km/h - 15.00 km/h | 83.00% | 1014.40 hPa
  • 11-04-2019 01:00:00 | 10.90°C | Oeste-13.00 km/h - 17.00 km/h | 81.00% | 1014.40 hPa
  • 11-04-2019 00:00:00 | 11.00°C | Sudoeste-10.00 km/h - 17.00 km/h | 81.00% | 1014.40 hPa
  • 10-04-2019 23:00:00 | 11.60°C | Oeste-13.00 km/h - 20.00 km/h | 80.00% | 1014.40 hPa
  • 10-04-2019 22:00:00 | 11.90°C | Noroeste-14.00 km/h - 26.00 km/h | 79.00% | 1013.80 hPa
    • diseño web asturias Información sobre el estado de las mareas, altura de la marejada, temperatura del agua y otros datos de Gijón en Asturias.

      Surf Gijón